Flag for Montenegro Weather past 2 weeks in Podgorica, Montenegro

Now
52 °F

Light rain. Broken clouds.


Feels Like: 52 °F
Forecast: 44 / 64 °F
Wind: 2 mph from North

Location: Podgorica Titograd

Current Time: Oct 23, 2014 at 4:01:02 PM

Latest Report: Oct 23, 2014 at 3:30 PM


Visibility: N/A

Pressure: 29.65 "Hg

Humidity: 77%

Dew point: 45 °F

Location of PodgoricaLocation

Historic Weather in Podgorica — Graph

°F

Podgorica temperature yesterday

Maximum temperature yesterday: 66 °F (at 3:00 PM)
Minimum temperature yesterday: 48 °F (at 11:00 PM)
Average temperature yesterday: 60 °F

Past Weeks' High & Low Weather Summary

 TemperatureHumidityPressure
High82 °F (Oct 18, 1:00 PM)100% (Oct 13, 3:30 AM)30.27 "Hg (Oct 13, 3:30 AM)
Low48 °F (Oct 22, 11:00 PM)27% (Oct 19, 5:00 PM)29.45 "Hg (Oct 22, 3:00 PM)
Average66 °F73%30.01 "Hg
* Reported Oct 8 3:00 PM — Oct 23 3:00 PM, Podgorica, Weather by CustomWeather, © 2014

Note: Actual official high and low records may vary slightly from our data, if they occured in-between our weather recording intervals... More about our weather records

Advertising

Podgorica weather history for previous 24 hours

 ConditionsComfort  
Time TempWeatherWind HumidityBarometerVisibility
3:00 PM
Oct 23
52 °FLight rain. Broken clouds.5 mph77%29.65 "HgN/A
2:30 PM54 °FLight rain. Broken clouds.6 mph67%29.65 "HgN/A
2:00 PM54 °FBroken clouds.9 mph54%29.65 "HgN/A
1:30 PM55 °FBroken clouds.7 mph55%29.65 "HgN/A
1:00 PM54 °FBroken clouds.3 mph63%29.65 "HgN/A
12:30 PM54 °FBroken clouds.5 mph67%29.65 "HgN/A
12:00 PM52 °FBroken clouds.5 mph72%29.65 "HgN/A
11:30 AM52 °FLight rain. Mostly cloudy.5 mph67%29.65 "HgN/A
11:00 AM52 °FLight rain. Mostly cloudy.6 mph67%29.65 "HgN/A
10:30 AM50 °FLight rain. Mostly cloudy.6 mph71%29.65 "HgN/A
10:00 AM50 °FLight rain. Mostly cloudy.3 mph71%29.65 "HgN/A
9:30 AM50 °FLight rain. Mostly cloudy.2 mph71%29.65 "HgN/A
9:00 AM50 °FLight rain. Mostly cloudy.8 mph67%29.62 "HgN/A
8:30 AM50 °FLight rain. Mostly cloudy.10 mph67%29.62 "HgN/A
8:00 AM50 °FLight rain. Mostly cloudy.12 mph67%29.59 "HgN/A
7:30 AM50 °FMostly cloudy.14 mph62%29.59 "HgN/A
7:00 AM50 °FLight rain. Mostly cloudy.13 mph67%29.59 "HgN/A
6:30 AM50 °FLight rain. Mostly cloudy.9 mph67%29.59 "HgN/A
6:00 AM50 °FLight rain. Mostly cloudy.8 mph67%29.59 "HgN/A
5:30 AM50 °FMostly cloudy.6 mph67%29.59 "HgN/A
5:00 AM50 °FMostly cloudy.7 mph71%29.59 "HgN/A
4:30 AM50 °FMostly cloudy.12 mph67%29.59 "HgN/A
4:00 AM52 °FMostly cloudy.13 mph58%29.59 "HgN/A
3:30 AM52 °FMostly cloudy.16 mph58%29.59 "HgN/A
3:00 AM50 °FMostly cloudy.14 mph62%29.59 "HgN/A
2:30 AM50 °FMostly cloudy.10 mph67%29.62 "HgN/A
2:00 AM50 °FMostly cloudy.9 mph71%29.62 "HgN/A
1:30 AM50 °FMostly cloudy.12 mph71%29.62 "HgN/A
1:00 AM48 °FLight rain. Mostly cloudy.14 mph76%29.62 "HgN/A
12:30 AM48 °FLight rain. Mostly cloudy.13 mph82%29.62 "HgN/A
12:00 AM48 °FLight rain. Mostly cloudy.10 mph82%29.62 "HgN/A
11:30 PM
Oct 22
48 °FLight rain. Mostly cloudy.14 mph82%29.62 "HgN/A
11:00 PM48 °FLight rain. Mostly cloudy.21 mph82%29.56 "HgN/A
10:30 PM50 °FLight rain. Mostly cloudy.18 mph76%29.59 "HgN/A
10:00 PM50 °FLight rain. Mostly cloudy.12 mph82%29.62 "HgN/A
9:30 PM50 °FLight rain. Mostly cloudy.9 mph88%29.59 "HgN/A
9:00 PM52 °FLight rain. Mostly cloudy.15 mph77%29.59 "HgN/A
8:30 PM52 °FPartly cloudy.23 mph72%29.59 "HgN/A
8:00 PM52 °FPartly cloudy.20 mph82%29.56 "HgN/A
7:30 PM52 °FLight rain. Mostly cloudy.18 mph82%29.56 "HgN/A
7:00 PM52 °FLight rain. Mostly cloudy.23 mph88%29.56 "HgN/A
6:30 PM54 °FLight rain. More clouds than sun.14 mph88%29.53 "HgN/A
6:00 PM55 °FLight rain. More clouds than sun.9 mph82%29.50 "HgN/A
5:30 PM57 °FLight rain. Scattered clouds.15 mph88%29.47 "HgN/A
5:00 PM63 °FLight rain. Scattered clouds.7 mph94%29.47 "HgN/A
4:30 PM63 °FLight rain. Broken clouds.12 mph100%29.45 "Hg5 mi
4:00 PM66 °FStrong thunderstorms. Broken clouds.12 mph88%29.45 "Hg4 mi
Weather by CustomWeather, © 2014

See weather overviewHow to use our weather pages